Location: Newark
(16.3678°N, 77.8722°E)
Time: 08:39:42
(UTC+00:00)

Tiros 1 - All Passes

Search period start: 09 December 2019 00:00
Search period end: 19 December 2019 00:00
Orbit: 630 x 664 km, 48.4° (Epoch: 08 December)

Date Brightness Start Highest point End Pass type
(mag) Time Alt. Az. Time Alt. Az. Time Alt. Az.
09 Dec - 00:19:11 10° W 00:23:09 26° NW 00:27:06 10° NNE visible
09 Dec - 09:00:10 10° NW 09:04:44 65° NE 09:09:19 10° SE daylight
09 Dec - 10:45:54 10° WSW 10:46:34 10° SW 10:47:14 10° SW daylight
09 Dec - 23:02:13 10° SW 23:07:00 87° NW 23:11:44 10° NE visible
10 Dec - 07:45:08 10° N 07:48:32 20° NE 07:51:55 10° E daylight
10 Dec - 09:26:26 10° WNW 09:30:41 38° SW 09:34:58 10° SSE daylight
10 Dec - 21:47:04 10° S 21:51:02 26° SE 21:54:59 10° ENE visible
10 Dec - 23:28:58 10° WSW 23:33:06 29° NW 23:37:11 10° NNE visible
11 Dec - 08:10:10 10° NNW 08:14:42 58° NE 08:19:14 10° SE daylight
11 Dec - 09:54:52 10° WSW 09:56:33 12° SW 09:58:15 10° SSW daylight
11 Dec - 22:12:11 10° SW 22:16:57 83° SE 22:21:42 10° NE visible
11 Dec - 23:58:08 10° NW 23:59:27 11° NW 00:00:45 10° NNW visible
12 Dec - 06:55:18 10° N 06:58:28 18° NE 07:01:37 10° E daylight
12 Dec - 08:36:19 10° WNW 08:40:40 43° SW 08:45:02 10° SSE daylight
12 Dec - 20:57:13 10° S 21:01:00 23° SE 21:04:46 10° ENE night (unlit)
12 Dec - 22:38:46 10° WSW 22:43:02 32° NW 22:47:17 10° NNE visible
13 Dec - 07:20:11 10° NNW 07:24:40 51° NE 07:29:09 10° ESE daylight
13 Dec - 09:04:18 10° W 09:06:33 13° SW 09:08:48 10° SSW daylight
13 Dec - 21:22:09 10° SW 21:26:55 74° SE 21:31:40 10° NE night (unlit)
13 Dec - 23:07:24 10° WNW 23:09:21 12° NW 23:11:19 10° NNW night (unlit)
14 Dec - 06:05:30 10° N 06:08:24 16° NE 06:11:18 10° E daylight
14 Dec - 07:46:14 10° NW 07:50:39 48° SW 07:55:06 10° SSE daylight
14 Dec - 20:07:24 10° S 20:10:59 21° SE 20:14:32 10° E night (unlit)
14 Dec - 21:48:35 10° WSW 21:52:59 36° NW 21:57:21 10° NNE night (unlit)
15 Dec - 06:30:13 10° NNW 06:34:38 45° NE 06:39:02 10° ESE daylight
15 Dec - 08:13:51 10° W 08:16:32 15° SW 08:19:12 10° SSW daylight
15 Dec - 20:32:08 10° SSW 20:36:53 65° SE 20:41:36 10° NE night (unlit)
15 Dec - 22:16:51 10° WNW 22:19:16 14° NW 22:21:41 10° N night (unlit)
16 Dec - 05:15:43 10° N 05:18:20 15° NE 05:20:55 10° ENE daylight
16 Dec - 06:56:08 10° NW 07:00:38 55° SW 07:05:09 10° SSE daylight
16 Dec - 19:17:37 10° S 19:20:57 19° SE 19:24:16 10° E night (unlit)
16 Dec - 20:58:25 10° WSW 21:02:55 40° NW 21:07:24 10° NNE night (unlit)
17 Dec - 05:40:15 10° NNW 05:44:36 40° NE 05:48:55 10° ESE daylight
17 Dec - 07:23:30 10° W 07:26:31 17° SW 07:29:32 10° SSW daylight
17 Dec - 19:42:08 10° SSW 19:46:50 58° SE 19:51:32 10° NE night (unlit)
17 Dec - 21:26:23 10° WNW 21:29:11 15° NW 21:31:58 10° N night (unlit)
18 Dec - 04:26:00 10° N 04:28:15 13° NE 04:30:30 10° ENE daylight
18 Dec - 06:06:03 10° NW 06:10:37 63° SW 06:15:11 10° SSE daylight
18 Dec - 18:27:54 10° SSE 18:30:55 17° SE 18:33:55 10° E night (unlit)
18 Dec - 20:08:16 10° WSW 20:12:51 45° NW 20:17:25 10° NNE night (unlit)
